When you browse on this site, cookies collect data to enhance your experience and personalize the content and advertising you see.
Visit our Privacy Policy to learn more. By continuing to use the site, you agree to this use of cookies and data.
  • In Österreich
  • Länderverzeichnis
  • Für 7 Tage
  • Wassertemperatur
  • Satellitenkarten
  • Wetterkarte
  • News
  • Widgets
  • user-avatar
    Anmelden

    Stündliche Wetter Tokyo

    Heute, 25 April, Donnerstag

    Zeit Temperatur Niederschläge Wind Luftdruck Luftfeuchtigkeit
    00:00 +20°C° 0.9 mm 8 m/S 755 mmHg 82%
    01:00 +21°C° 0.7 mm 8 m/S 754 mmHg 83%
    02:00 +21°C° 0.7 mm 8 m/S 753 mmHg 84%
    03:00 +20°C° 0 mm 8 m/S 753 mmHg 85%
    04:00 +21°C° 1.7 mm 7 m/S 752 mmHg 85%
    05:00 +21°C° 1.7 mm 7 m/S 752 mmHg 86%
    06:00 +21°C° 1.7 mm 7 m/S 751 mmHg 87%
    07:00 +21°C° 0.1 mm 6 m/S 751 mmHg 85%
    08:00 +21°C° 0.1 mm 6 m/S 750 mmHg 84%
    09:00 +23°C° 0 mm 2 m/S 751 mmHg 79%
    10:00 +23°C° 0 mm 2 m/S 750 mmHg 76%
    11:00 +24°C° 0 mm 2 m/S 750 mmHg 74%
    12:00 +25°C° 0 mm 2 m/S 750 mmHg 71%
    13:00 +26°C° 0 mm 2 m/S 749 mmHg 66%
    14:00 +27°C° 0 mm 3 m/S 749 mmHg 61%
    15:00 +26°C° 0 mm 1 m/S 748 mmHg 61%
    16:00 +26°C° 0 mm 1 m/S 749 mmHg 61%
    17:00 +26°C° 0 mm 1 m/S 749 mmHg 60%
    18:00 +27°C° 0 mm 1 m/S 749 mmHg 59%
    19:00 +26°C° 0 mm 1 m/S 750 mmHg 61%
    20:00 +26°C° 0 mm 1 m/S 750 mmHg 63%
    21:00 +25°C° 0 mm 2 m/S 750 mmHg 66%
    22:00 +25°C° 0.1 mm 2 m/S 750 mmHg 67%
    23:00 +24°C° 0.1 mm 2 m/S 750 mmHg 69%

    Morgen, 26 April, Freitag

    Zeit Temperatur Niederschläge Wind Luftdruck Luftfeuchtigkeit
    00:00 +24°C° 0.1 mm 2 m/S 750 mmHg 71%
    01:00 +22°C° 0.2 mm 3 m/S 750 mmHg 73%
    02:00 +22°C° 0.2 mm 4 m/S 750 mmHg 76%
    03:00 +21°C° 0.2 mm 5 m/S 750 mmHg 79%
    04:00 +20°C° 0.3 mm 5 m/S 750 mmHg 78%
    05:00 +20°C° 0.3 mm 5 m/S 750 mmHg 78%
    06:00 +19°C° 0.3 mm 5 m/S 750 mmHg 77%
    07:00 +19°C° 0.2 mm 5 m/S 749 mmHg 76%
    08:00 +19°C° 0.2 mm 5 m/S 749 mmHg 75%
    09:00 +18°C° 0.2 mm 4 m/S 749 mmHg 74%
    10:00 +18°C° 0.2 mm 4 m/S 749 mmHg 74%
    11:00 +18°C° 0.2 mm 4 m/S 749 mmHg 73%
    12:00 +18°C° 0.2 mm 3 m/S 748 mmHg 72%
    13:00 +19°C° 0 mm 3 m/S 749 mmHg 70%
    14:00 +19°C° 0 mm 3 m/S 749 mmHg 68%
    15:00 +19°C° 0 mm 3 m/S 749 mmHg 66%
    16:00 +19°C° 0.1 mm 4 m/S 749 mmHg 67%
    17:00 +18°C° 0.1 mm 4 m/S 749 mmHg 68%
    18:00 +17°C° 0.1 mm 5 m/S 749 mmHg 69%
    19:00 +17°C° 0.1 mm 5 m/S 750 mmHg 69%
    20:00 +16°C° 0.1 mm 5 m/S 750 mmHg 69%
    21:00 +16°C° 0.1 mm 5 m/S 751 mmHg 68%
    22:00 +16°C° 0.1 mm 5 m/S 751 mmHg 68%
    23:00 +15°C° 0.1 mm 5 m/S 751 mmHg 69%

    übermorgen, 27 April, Samstag

    Zeit Temperatur Niederschläge Wind Luftdruck Luftfeuchtigkeit
    00:00 +15°C° 0.1 mm 5 m/S 751 mmHg 69%
    01:00 +15°C° 0.1 mm 5 m/S 751 mmHg 70%
    02:00 +15°C° 0.1 mm 5 m/S 751 mmHg 71%
    03:00 +15°C° 0.1 mm 5 m/S 750 mmHg 72%
    04:00 +15°C° 0.4 mm 4 m/S 750 mmHg 73%
    05:00 +15°C° 0.4 mm 4 m/S 750 mmHg 74%
    06:00 +14°C° 0.4 mm 4 m/S 750 mmHg 76%
    07:00 +14°C° 1.5 mm 4 m/S 751 mmHg 74%
    08:00 +13°C° 1.5 mm 5 m/S 751 mmHg 72%
    09:00 +12°C° 1.5 mm 5 m/S 751 mmHg 70%
    10:00 +11°C° 0.2 mm 6 m/S 751 mmHg 66%
    11:00 +13°C° 0.2 mm 6 m/S 751 mmHg 61%
    12:00 +13°C° 0.2 mm 6 m/S 751 mmHg 57%
    13:00 +13°C° 0.9 mm 5 m/S 751 mmHg 56%
    14:00 +13°C° 0.9 mm 4 m/S 751 mmHg 55%
    15:00 +14°C° 0.9 mm 2 m/S 751 mmHg 54%
    16:00 +13°C° 1.1 mm 4 m/S 752 mmHg 51%
    17:00 +13°C° 1.1 mm 5 m/S 753 mmHg 48%
    18:00 +13°C° 1.1 mm 6 m/S 754 mmHg 45%
    19:00 +12°C° 0.1 mm 7 m/S 755 mmHg 41%
    20:00 +11°C° 0.1 mm 9 m/S 756 mmHg 36%
    21:00 +11°C° 0.1 mm 11 m/S 757 mmHg 32%
    22:00 +11°C° 0 mm 10 m/S 758 mmHg 32%
    23:00 +10°C° 0 mm 9 m/S 758 mmHg 33%

    28 April, Sonntag

    Zeit Temperatur Niederschläge Wind Luftdruck Luftfeuchtigkeit
    00:00 +10°C° 0 mm 9 m/S 759 mmHg 34%
    01:00 +10°C° 0 mm 8 m/S 759 mmHg 34%
    02:00 +10°C° 0 mm 7 m/S 760 mmHg 34%
    03:00 +9°C° 0 mm 6 m/S 760 mmHg 35%
    04:00 +9°C° 0 mm 6 m/S 761 mmHg 34%
    05:00 +10°C° 0 mm 5 m/S 762 mmHg 34%
    06:00 +10°C° 0 mm 5 m/S 762 mmHg 33%
    07:00 +12°C° 0 mm 5 m/S 763 mmHg 30%
    08:00 +13°C° 0 mm 4 m/S 763 mmHg 27%
    09:00 +14°C° 0 mm 4 m/S 763 mmHg 25%
    10:00 +17°C° 0 mm 3 m/S 763 mmHg 22%
    11:00 +18°C° 0 mm 2 m/S 763 mmHg 18%
    12:00 +19°C° 0 mm 2 m/S 763 mmHg 15%
    13:00 +19°C° 0 mm 2 m/S 762 mmHg 14%
    14:00 +20°C° 0 mm 2 m/S 762 mmHg 13%
    15:00 +21°C° 0 mm 2 m/S 762 mmHg 12%
    16:00 +20°C° 0 mm 4 m/S 763 mmHg 15%
    17:00 +20°C° 0 mm 5 m/S 763 mmHg 18%
    18:00 +19°C° 0 mm 6 m/S 763 mmHg 21%
    19:00 +17°C° 0 mm 6 m/S 764 mmHg 27%
    20:00 +17°C° 0 mm 6 m/S 764 mmHg 34%
    21:00 +16°C° 0 mm 6 m/S 765 mmHg 40%
    22:00 +16°C° 0 mm 6 m/S 765 mmHg 42%
    23:00 +15°C° 0 mm 6 m/S 765 mmHg 43%

    29 April, Montag

    Zeit Temperatur Niederschläge Wind Luftdruck Luftfeuchtigkeit
    00:00 +15°C° 0 mm 6 m/S 765 mmHg 44%
    01:00 +15°C° 0 mm 6 m/S 765 mmHg 45%
    02:00 +15°C° 0 mm 5 m/S 764 mmHg 46%
    03:00 +15°C° 0 mm 5 m/S 764 mmHg 47%
    04:00 +15°C° 0 mm 5 m/S 764 mmHg 48%
    05:00 +15°C° 0 mm 5 m/S 765 mmHg 48%
    06:00 +15°C° 0 mm 5 m/S 765 mmHg 48%
    07:00 +16°C° 0 mm 5 m/S 765 mmHg 46%
    08:00 +17°C° 0 mm 5 m/S 765 mmHg 43%
    09:00 +19°C° 0 mm 6 m/S 765 mmHg 41%
    10:00 +20°C° 0 mm 6 m/S 764 mmHg 40%
    11:00 +21°C° 0 mm 7 m/S 764 mmHg 39%
    12:00 +21°C° 0 mm 8 m/S 763 mmHg 38%
    13:00 +21°C° 0 mm 8 m/S 763 mmHg 40%
    14:00 +21°C° 0 mm 8 m/S 762 mmHg 41%
    15:00 +22°C° 0 mm 9 m/S 761 mmHg 42%
    16:00 +21°C° 0 mm 9 m/S 761 mmHg 45%
    17:00 +19°C° 0 mm 9 m/S 761 mmHg 48%
    18:00 +19°C° 0 mm 9 m/S 761 mmHg 51%
    19:00 +18°C° 0 mm 9 m/S 761 mmHg 53%
    20:00 +18°C° 0 mm 8 m/S 761 mmHg 56%
    21:00 +18°C° 0 mm 8 m/S 761 mmHg 58%
    22:00 +17°C° 0 mm 8 m/S 761 mmHg 60%
    23:00 +17°C° 0 mm 8 m/S 760 mmHg 61%

    30 April, Dienstag

    Zeit Temperatur Niederschläge Wind Luftdruck Luftfeuchtigkeit
    00:00 +17°C° 0 mm 8 m/S 760 mmHg 63%
    01:00 +17°C° 0.2 mm 8 m/S 759 mmHg 66%
    02:00 +17°C° 0.2 mm 8 m/S 758 mmHg 68%
    03:00 +16°C° 0.2 mm 8 m/S 758 mmHg 71%
    04:00 +16°C° 0.9 mm 8 m/S 758 mmHg 71%
    05:00 +16°C° 0.9 mm 8 m/S 758 mmHg 70%
    06:00 +16°C° 0.9 mm 7 m/S 757 mmHg 70%
    07:00 +17°C° 0 mm 8 m/S 757 mmHg 65%
    08:00 +18°C° 0 mm 9 m/S 757 mmHg 59%
    09:00 +19°C° 0 mm 9 m/S 756 mmHg 54%
    10:00 +21°C° 0 mm 10 m/S 755 mmHg 52%
    11:00 +22°C° 0 mm 10 m/S 755 mmHg 50%
    12:00 +23°C° 0 mm 10 m/S 754 mmHg 49%
    13:00 +23°C° 0 mm 9 m/S 753 mmHg 54%
    14:00 +22°C° 0 mm 9 m/S 752 mmHg 60%
    15:00 +21°C° 0 mm 8 m/S 751 mmHg 65%
    16:00 +21°C° 0 mm 8 m/S 751 mmHg 69%
    17:00 +21°C° 0 mm 8 m/S 751 mmHg 73%
    18:00 +21°C° 0 mm 8 m/S 750 mmHg 76%
    19:00 +21°C° 0.2 mm 6 m/S 750 mmHg 78%
    20:00 +21°C° 0.2 mm 5 m/S 750 mmHg 80%
    21:00 +21°C° 0.2 mm 3 m/S 750 mmHg 82%
    22:00 +21°C° 0 mm 3 m/S 749 mmHg 83%
    23:00 +21°C° 0 mm 2 m/S 749 mmHg 83%
    Mehr zeigen